Regional Weather Roundup
Issued by NWS Wakefield, VA

Home | Current Version | Previous Version | Text Only | Print | Product List | Glossary On
Versions: 1 2 3 4 5 6 7 8 9 10 11 12 13 14 15 16 17 18 19 20 21 22 23 24 25 26 27 28 29 30 31 32 33 34 35 36 37 38 39 40
000
ASUS41 KAKQ 220710
RWRAKQ

REGIONAL WEATHER ROUNDUP
NATIONAL WEATHER SERVICE WAKEFIELD VA
300 AM EDT WED OCT 22 2014

Note: "fair" indicates few or no clouds below 12,000 feet with no
significant weather and/or obstructions to visibility. * = Denotes
station may not report precipitation (e.g., rain,snow,etc.),
thunder or fog.

VAZ042-051-052>054-056-220800-
NORTHERN VIRGINIA

CITY           SKY/WX    TMP DP  RH WIND       PRES   REMARKS
WASH NATIONAL  LGT RAIN  55  49  80 NW14      29.87F
DULLES         CLOUDY    51  49  92 NW8       29.89F
FORT BELVOIR   NOT AVBL
QUANTICO       CLOUDY    53  49  86 N12       29.88F
FREDERICKSBRG* CLOUDY    54  52  95 NW7       29.87F
STAFFORD*      CLOUDY    51  51 100 NW7       29.92S
WARRENTON      CLOUDY    53  52  95 NW8       29.88S
CULPEPER*      CLOUDY    54  48  82 NW6       29.90S
MANASSAS*      CLOUDY    52  50  93 NW12      29.88F
LEESBURG*      CLOUDY    52  52 100 NW8       29.90F
WINCHESTER     CLOUDY    52  45  76 NW9       29.92S
FRONT ROYAL*   CLOUDY    50  45  81 NW6       29.91S
LURAY*         CLOUDY    54  46  76 N7        29.92S
$$

VAZ048-049-060>072-079>083-220800-
CENTRAL AND SOUTH CENTRAL VIRGINIA...AND NORTH CENTRAL NORTH CAROLINA

CITY           SKY/WX    TMP DP  RH WIND       PRES   REMARKS
RICHMOND       CLOUDY    54  49  83 NW9       29.87R
CHESTERFIELD*  CLOUDY   N/A N/A N/A NW7       29.88S
PETERSBURG*    MOCLDY    54  47  77 NW5       29.89R
HANOVER        PTCLDY    52  48  86 NW5       29.89S
TAPPAHANNOCK*  CLOUDY    54  49  83 NW3       29.86F
CHARLOTTSVILLE CLOUDY    53  44  71 VRB5      29.90F
ORANGE*        CLOUDY    54  46  76 NW5       29.91S
LOUISA*        LGT RAIN  52  48  87 NW3       29.88S
FARMVILLE*     LGT RAIN  52  50  93 CALM      29.90R
CREWE*         CLOUDY    54  47  78 NW7       29.89S
FORT PICKETT*  CLOUDY    52  48  86 NW8       29.89S
LUNENBURG*     CLOUDY    54  47  80 NW3       29.89S
SOUTH HILL*    CLOUDY    55  46  71 NW3       29.94S
LAWRENCEVILLE* PTSUNNY   52  49  90 CALM      29.88R
ROANOKE RAPIDS PTSUNNY   52  45  76 CALM      29.88F
RALEIGH        PTCLDY    51  39  63 CALM      29.93S
$$

VAZ088>098-220800-
SOUTHEAST VIRGINIA

CITY           SKY/WX    TMP DP  RH WIND       PRES   REMARKS
NORFOLK        CLOUDY    58  51  78 VRB5      29.82F
VIRGINIA BEACH CLOUDY    60  54  80 NW7       29.82R
NORFOLK NAVAL  CLOUDY    59  51  75 NW14      29.83F
WEST POINT*    CLOUDY    56  52  86 NW6       29.86S
NEWPORT NEWS   CLOUDY    58  51  78 NW6       29.83F
LANGLEY AFB    CLOUDY    56  55  98 NW9       29.82F
FORT EUSTIS    CLOUDY    56  56 100 NW13      29.83S
WILLIAMSBURG*  CLOUDY    55  52  88 NW8       29.85F
HR EXEC AP*    CLOUDY    55  50  82 SW14      29.89R
FRANKLIN*      CLOUDY    54  52  94 CALM      29.86S
WAKEFIELD      LGT RAIN  54  50  86 CALM      29.86S
$$

VAZ020-022-025-037-045-220800-
WEST CENTRAL AND SOUTHWEST VIRGINIA

CITY           SKY/WX    TMP DP  RH WIND       PRES   REMARKS
STAUNTON*      CLOUDY    51  42  71 CALM      29.95S
HOT SPRINGS VA CLOUDY    39  37  94 NW15G21   29.92S
LYNCHBURG      CLOUDY    48  44  86 NW5       29.95S
DANVILLE       PTCLDY    52  42  69 NW8       29.95S
SOUTH BOSTON*  NOT AVBL
MARTINSVILLE   CLEAR     47  40  75 NW9       30.00S
ROANOKE        CLOUDY    50  37  61 NW14G23   30.00S
BLACKSBURG     CLOUDY    46  39  76 NW8       30.02S
DUBLIN*        CLOUDY    46  40  77 NW7       30.03S
MARION*        CLOUDY    45  39  80 SW8       30.06S
HILLSVILLE*    CLOUDY    43  38  84 NW12G18   29.99S
RICHLANDS*     CLOUDY    44  41  91 NW8G16    30.06S
WISE*          CLOUDY    41  41 100 N7        30.09S
ABINGDON*      CLOUDY    48  40  75 N8        30.06S
$$

MDZ021>025-VAZ099-100-220800-
SOUTHERN MARYLAND AND THE DELMARVA PENINSULA

CITY           SKY/WX    TMP DP  RH WIND       PRES   REMARKS
PATUXENT RIVER CLOUDY    56  52  86 NW10      29.83F
BAY BRIDGE APT   N/A     54  54 100 N13       29.84F
LEONARDTOWN    CLOUDY    54  50  87 NW3       29.85F
DOVER          LGT RAIN  56  56 100 NW8       29.80F FOG
GEORGETOWN     CLOUDY    55  53  93 VRB3      29.81F FOG
EASTON         CLOUDY    56  56 100 N8        29.86F
CAMBRIDGE      CLOUDY    55  52  88 N8        29.82F
SALISBURY      CLOUDY    57  54  88 CALM      29.81F FOG
OCEAN CITY     CLOUDY    55  53  93 N3        29.80S
WALLOPS ISLAND CLOUDY    56  54  93 N5        29.80F
ACCOMACK*      CLOUDY    55  54  94 N7        29.80F
$$

NCZ012>017-030>032-220800-
EASTERN NORTH CAROLINA

CITY           SKY/WX    TMP DP  RH WIND       PRES   REMARKS
ELIZABETH CITY CLOUDY    58  53  84 NW9       29.83S
AHOSKIE*       LGT RAIN  52  50  93 CALM      29.87F
EDENTON*       PTCLDY    55  52  89 NW5       29.85S
CURRITUCK*     CLOUDY    57  53  88 W6        29.83S
KILL DEVIL HLS LGT RAIN  60  54  83 CALM      29.79F
MANTEO         CLOUDY    60  54  81 NW3       29.80F
CAPE HATTERAS  PTCLDY    62  55  77 VRB6      29.81S
TARBORO*       CLOUDY    55  46  73 W5        29.89S
GOLDSBORO      MOCLDY    57  46  67 NW10      29.89S
WASHINGTON     CLOUDY    55  48  77 NW6       29.87F
GREENVILLE     MOCLDY    55  45  67 NW6       29.91S
NEW BERN       MOCLDY    60  49  66 NW10      29.87S
WILMINGTON     MOCLDY    58  46  64 NW8       29.89S
$$

VAZ048-220800-
ELSEWHERE

CITY           SKY/WX    TMP DP  RH WIND       PRES   REMARKS
HARRISBURG PA  CLOUDY    54  48  80 NW8       29.89S
BALTIMORE      LGT RAIN  54  52  94 NW5       29.86S
ANNAPOLIS      CLOUDY    55  52  89 NW10      29.84F
ANDREWS AFB    LGT RAIN  53  52  96 NW8       29.85F
WILMINGTON DE  LGT RAIN  55  52  89 N10       29.84F
PHILADELPHIA   CLOUDY    57  50  77 N15       29.85F
WILDWOOD NJ*   CLOUDY    55  52  88 N6        29.80F
ATLANTIC CITY  LGT RAIN  57  56  96 NE8       29.81F FOG
HENDERSON NC   CLOUDY    50  44  79 NW6       29.92R
GREENSBORO     CLEAR     44  38  79 NW6       29.96S
ROCKY MOUNT    CLOUDY    55  42  61 W9        29.90S
FAYETTEVILLE   PTCLDY    56  40  55 NW9       29.93S
CHARLOTTE      PTCLDY    49  37  63 N8        29.99F
$$

VAZ100-220800-
MARINE

STATION/POSITION TIME  TEMP    WIND        PRES    WAVE   SWELL
                       AIR SEA DIR/SP/G            HT/PER HT/PER
                 (UTC) (F)     (DEG/KT/KT) (MB)    (FT/S) (FT/S)
44066 TX TWR #4  0700   65 66   70/ 14/ 16 1009.0F   4/ 7   3/ 7
CAPE MAY NJ      0700   58 67   10/  3/  5 1008.6F
LEWES DE         0700   60 64  350/ 12/ 14 1008.7F
15NM E FENWICK I 0700   62 66  320/ 10/ 12 1008.5F   3/ 6   2/ 6
OCEAN-CITY-INLET 0700   58 65   20/  7/ 10 1008.4F
WACHAPREAGUE VA  0700   56 64  350/  3/  6 1009.3F
THOMAS POINT MD  0700   55 64  350/ 14/ 16 1011.3F
GOOSES REEF MD   0700   58      10/ 16/ 19 1010.3F
COVE POINT MD    0700   57      10/ 15/ 20 1009.8F
SOLOMONS ISLAND  0700      66                N/A
BISHOPS HEAD MD  0700   56 62  350/  6/  9 1009.0F
PINEY POINT MD   0700          360/ 13/ 15   N/A
POTOMAC MD       0700   58     340/ 10/ 12 1009.0F
CAMBRIDGE MD     0700   56 63  350/ 10/ 12 1009.5F
LEWISETTA VA     0700   57 65  350/  9/ 13 1009.6F
RAPPAHANNOCK LGT 0700          360/ 18/ 20 1009.5F
STINGRAY PT      0700   57     320/ 12/ 14 1010.5F
YORK RVR RNG VA  0700   56     340/ 14/ 16 1009.2F
YORKTOWN VA      0700   56 67  320/ 14/ 17 1009.5F
JAMESTOWN VA     0700   55     350/ 12/ 16   N/A
DOMINION TERM VA 0700   57     320/  3/  7 1009.9F
KIPTOPEKE VA     0700      70  340/ 15/ 19   N/A
CHES BAY BRIDGE  0700   59 67  320/ 15/ 18 1008.8F
CHESAPEAKE LGHT  0600   61     340/ 12/ 14 1010.3F
WILLOUBY STN VA  0700   57     330/ 12/ 13 1008.5F
S CRANEY ISL VA  0700          310/  8/ 12 1009.5F
CAPE HENRY BUOY  0600      69                N/A     3/ 3
1ST LANDING BUOY 0700   60     340/ 14/ 17 1009.2F
CAPE CHARLES BUO 0700      68                N/A     2/ 9   2/ 9
64NM E OF VA BCH 0700   66 69  320/ 17/ 21 1007.6F   3/ 7   2/ 7
DUCK PIER NC     0700   62 69   10/ 10/ 13 1008.3F
44100 DUCK FRF   0700      71                N/A     3/ 3
44056 DUCK FRF   0600                        N/A     2/11   2/11
OREGON INLET NC  0700   61 68  330/  6/  9 1009.0F
HATTERAS NC      0700   64 72  350/ 15/ 17 1009.7F
DIAMOND SHLS NC  0700   66     330/ 19/ 23 1008.9F   4/10   2/10
CAPE LOOKOUT NC  0700   62     340/ 18/ 20 1010.2F
$$



USA.gov is the U.S. government's official web portal to all federal, state and local government web resources and services.